This is the latest recevied weather packets stored in our database for station/object K7CTM. If no packets are shown the sender has not sent any weather packets the latest 10 day(s).
| Time | Temp. | Humidity | Pressure | Rain* | Wind** | Luminosity | Snow |
|---|---|---|---|---|---|---|---|
| 1777815719 | 7.22° C | 71% | 1026.2 hPa | 0 mm | - | 153 W/m² | - |
| 1777815416 | 7.22° C | 72% | 1026.4 hPa | 0 mm | - | 140 W/m² | - |
| 1777815112 | 6.67° C | 73% | 1026.4 hPa | 0 mm | - | 126 W/m² | - |
| 1777814809 | 6.67° C | 73% | 1026.3 hPa | 0 mm | - | 114 W/m² | - |
| 1777814506 | 6.67° C | 73% | 1026.3 hPa | 0 mm | - | 103 W/m² | - |
| 1777814203 | 6.67° C | 74% | 1026.3 hPa | 0 mm | - | 98 W/m² | - |
| 1777813900 | 6.11° C | 76% | 1026.3 hPa | 0 mm | - | 103 W/m² | - |
| 1777813597 | 6.11° C | 76% | 1026.2 hPa | 0 mm | - | 72 W/m² | - |
| 1777813295 | 6.11° C | 75% | 1026.3 hPa | 0 mm | - | 82 W/m² | - |
| 1777812992 | 6.67° C | 75% | 1026.4 hPa | 0 mm | - | 62 W/m² | - |
| 1777812689 | 6.67° C | 75% | 1026.4 hPa | 0 mm | - | 50 W/m² | - |
| 1777812386 | 6.11° C | 75% | 1026.3 hPa | 0 mm | - | 46 W/m² | - |
| 1777812085 | 6.11° C | 75% | 1026.2 hPa | 0 mm | - | 34 W/m² | - |
| 1777811782 | 5.56° C | 76% | 1026.4 hPa | 0 mm | - | 23 W/m² | - |
| 1777811479 | 5.56° C | 76% | 1026.1 hPa | 0 mm | - | 18 W/m² | - |
| 1777811175 | 5.56° C | 78% | 1026.1 hPa | 0 mm | - | 14 W/m² | - |
| 1777810873 | 5° C | 78% | 1026 hPa | 0 mm | - | 10 W/m² | - |
| 1777810569 | 5° C | 78% | 1026 hPa | 0 mm | - | 8 W/m² | - |
| 1777810266 | 5° C | 78% | 1026.2 hPa | 0 mm | - | 5 W/m² | - |
| 1777809961 | 5.56° C | 76% | 1026.1 hPa | 0 mm | - | 4 W/m² | - |
| 1777809660 | 5° C | 79% | 1026.3 hPa | 0 mm | - | 2 W/m² | - |
| 1777809357 | 5° C | 79% | 1026.2 hPa | 0 mm | - | 1 W/m² | - |
| 1777809055 | 4.44° C | 81% | 1026.3 hPa | 0 mm | - | 1 W/m² | - |
| 1777808752 | 4.44° C | 82% | 1026 hPa | 0 mm | - | 0 W/m² | - |
| 1777808449 | 4.44° C | 81% | 1026 hPa | 0 mm | - | 0 W/m² | - |
* Rain latest hour (hover to see other rain measurements)
** Current wind speed in m/s (hover to see current wind gust speed)